Location: Alafon
(8.4500°N, 4.2333°E)
Time: 17:33:15
(UTC+00:00)

Transit 2A - Pass Details

Date: 10 August 2021
Orbit: 595 x 964 km, 66.7° (Epoch: 18 September)

Event Time Altitude Azimuth Distance (km) Brightness Sun altitude
Rises 03:21:56 0° 232° (SW) 2,840 - -32.0°
Reaches altitude 10° 03:24:55 10° 254° (WSW) 1,922 - -31.3°
Maximum altitude 03:27:35 16° 293° (WNW) 1,563 - -30.7°
Drops below altitude 10° 03:30:16 10° 332° (NNW) 1,933 - -30.1°
Exits shadow 03:32:07 - 347° (NNW) 2,469 8.8 -29.7°
Sets 03:33:17 0° 354° (N) 2,864 9.2 -29.4°
